User: anonymous   Login
Location: Luna
(33.8188°N, 108.9564°W)
Time: 16:42:26
(UTC+00:00)
Language:

XW-2F - Orbit

View from above orbital plane
View from above orbital plane
View from above satellite
View from above satellite

Ground track
Ground track

The orbit data is extracted from the following two-line orbital elements,

1 40910U 15049M   23079.22185365  .00035817  00000-0  11502-2 0  9991
2 40910  97.4702  91.2339 0013119  84.4744 340.7139 15.32125091415240
Epoch (UTC): 20 March 2023 05:19:28
Eccentricity: 0.0013119
inclination: 97.4702°
perigee height: 460 km
apogee height: 478 km
right ascension of ascending node: 91.2339°
argument of perigee: 84.4744°
revolutions per day: 15.32125091
mean anomaly at epoch: 340.7139°
orbit number at epoch: 41524

The dashed part of the orbit path shows where the satellite is in the earth's shadow,  

DLR